User: anonymous   Login
Location: Dillon
(41.1766°N, 107.0923°W)
Time: 11:25:31
(UTC+00:00)
Language:

XW-2D - Orbit

View from above orbital plane
View from above orbital plane
View from above satellite
View from above satellite

Ground track
Ground track

The orbit data is extracted from the following two-line orbital elements,

1 40907U 15049J   22181.19146014  .00004614  00000-0  21795-3 0  9991
2 40907  97.4906 184.4934 0011635 317.4070 109.9977 15.19865179374905
Epoch (UTC): 30 June 2022 04:35:42
Eccentricity: 0.0011635
inclination: 97.4906°
perigee height: 498 km
apogee height: 514 km
right ascension of ascending node: 184.4934°
argument of perigee: 317.4070°
revolutions per day: 15.19865179
mean anomaly at epoch: 109.9977°
orbit number at epoch: 37490

The dashed part of the orbit path shows where the satellite is in the earth's shadow,  

DLR